QPF
0.00 0.01 0.01 0.00 0.01 0.01 0.01 0.01 0.01 0.00 0.01 0.01 0.01 0.02 0.03 0.03 0.03 0.02 0.01 0.01 0.01 0.01 0.01 0.01 0.01 0.02 0.03 0.03 0.04 0.06 0.04 0.02 0.01 0.01 0.02 0.01 0.01 0.01 0.01 0.01 0.01 0.01 0.02 0.03
0.01 0.01 0.00 0.00 0.00 0.00 0.01 0.01 0.01 0.01 0.01 0.01 0.02 0.01 0.02 0.02 0.01 0.01 0.01 0.01 0.00 0.00 0.01 0.01 0.01 0.01 0.03 0.03 0.04 0.05 0.04 0.02 0.01 0.01 0.01 0.00 0.00 0.00 0.00 0.00 0.00 0.00 0.00 0.01
0.01 0.01 0.00 0.00 0.00 0.00 0.00 0.01 0.01 0.01 0.01 0.02 0.03 0.03 0.02 0.03 0.01 0.01 0.01 0.00 0.00 0.00 0.00 0.00 0.01 0.01 0.01 0.02 0.03 0.04 0.03 0.02 0.01 0.01 0.01 0.00 0.00 0.00 0.00 0.00 0.00 0.00 0.00 0.00
0.00 0.00 0.00 0.00 0.00 0.00 0.00 0.01 0.01 0.01 0.02 0.02 0.03 0.04 0.03 0.03 0.03 0.02 0.01 0.01 0.00 0.00 0.00 0.00 0.01 0.01 0.01 0.02 0.03 0.02 0.02 0.02 0.01 0.01 0.00 0.00 0.00 0.00 0.00 0.00 0.00 0.00 0.00 0.00
0.00 0.00 0.00 0.00 0.00 0.00 0.00 0.00 0.00 0.00 0.01 0.01 0.02 0.03 0.03 0.03 0.03 0.03 0.02 0.01 0.00 0.00 0.00 0.00 0.01 0.01 0.01 0.02 0.04 0.03 0.02 0.02 0.02 0.01 0.00 0.00 0.00 0.00 0.00 0.00 0.00 0.00 0.00 0.00
0.00 0.00 0.00 0.00 0.00 0.00 0.00 0.00 0.00 0.01 0.01 0.02 0.01 0.02 0.03 0.02 0.02 0.02 0.01 0.00 0.00 0.00 0.00 0.00 0.01 0.01 0.01 0.01 0.03 0.06 0.05 0.02 0.02 0.02 0.01 0.01 0.01 0.01 0.01 0.01 0.01 0.00 0.00 0.00
0.00 0.00 0.00 0.00 0.00 0.00 0.00 0.00 0.01 0.01 0.01 0.02 0.01 0.01 0.01 0.01 0.01 0.00 0.00 0.00 0.00 0.00 0.00 0.00 0.00 0.00 0.00 0.02 0.02 0.03 0.06 0.05 0.03 0.02 0.02 0.02 0.01 0.02 0.02 0.02 0.02 0.01 0.00 0.00
0.00 0.00 0.00 0.00 0.00 0.00 0.00 0.00 0.01 0.01 0.00 0.00 0.00 0.00 0.00 0.00 0.00 0.00 0.00 0.00 0.00 0.00 0.00 0.00 0.00 0.00 0.00 0.01 0.01 0.02 0.03 0.05 0.04 0.04 0.03 0.02 0.02 0.02 0.03 0.03 0.03 0.02 0.01 0.00
0.00 0.00 0.00 0.00 0.00 0.00 0.00 0.00 0.00 0.01 0.00 0.00 0.00 0.00 0.00 0.00 0.00 0.00 0.00 0.00 0.00 0.00 0.00 0.00 0.00 0.00 0.00 0.00 0.00 0.00 0.01 0.02 0.03 0.03 0.04 0.03 0.03 0.02 0.03 0.03 0.03 0.02 0.01 0.01
0.00 0.00 0.00 0.00 0.00 0.00 0.00 0.00 0.00 0.01 0.00 0.00 0.00 0.00 0.00 0.00 0.00 0.00 0.00 0.00 0.00 0.00 0.00 0.00 0.00 0.00 0.00 0.00 0.00 0.00 0.00 0.00 0.01 0.02 0.02 0.03 0.03 0.02 0.02 0.02 0.02 0.02 0.01 0.01
0.00 0.00 0.00 0.00 0.00 0.00 0.00 0.00 0.01 0.00 0.00 0.00 0.00 0.00 0.00 0.00 0.00 0.00 0.00 0.00 0.00 0.00 0.00 0.00 0.00 0.00 0.00 0.00 0.00 0.00 0.00 0.00 0.00 0.01 0.01 0.01 0.02 0.02 0.01 0.01 0.01 0.01 0.01 0.01
0.00 0.00 0.00 0.00 0.00 0.00 0.00 0.00 0.00 0.01 0.01 0.00 0.00 0.00 0.00 0.00 0.00 0.00 0.00 0.00 0.00 0.00 0.00 0.00 0.00 0.00 0.00 0.00 0.00 0.00 0.00 0.00 0.00 0.00 0.01 0.01 0.01 0.01 0.01 0.01 0.01 0.01 0.01 0.00
0.00 0.01 0.01 0.00 0.00 0.00 0.00 0.00 0.00 0.01 0.01 0.01 0.00 0.00 0.00 0.00 0.00 0.00 0.00 0.00 0.00 0.00 0.00 0.00 0.00 0.00 0.00 0.00 0.00 0.00 0.00 0.00 0.00 0.00 0.00 0.00 0.00 0.01 0.01 0.00 0.00 0.00 0.00 0.00
0.01 0.01 0.01 0.00 0.00 0.00 0.00 0.00 0.00 0.01 0.01 0.01 0.00 0.00 0.00 0.00 0.00 0.00 0.00 0.00 0.00 0.00 0.00 0.00 0.00 0.00 0.00 0.00 0.00 0.00 0.00 0.00 0.00 0.00 0.00 0.00 0.00 0.00 0.00 0.00 0.00 0.00 0.00 0.00
0.01 0.01 0.01 0.00 0.00 0.00 0.00 0.00 0.00 0.01 0.01 0.01 0.00 0.00 0.00 0.00 0.00 0.00 0.00 0.00 0.00 0.00 0.00 0.00 0.00 0.00 0.00 0.00 0.00 0.00 0.00 0.00 0.00 0.00 0.00 0.00 0.00 0.00 0.00 0.00 0.00 0.00 0.00 0.00
0.00 0.01 0.01 0.00 0.00 0.00 0.00 0.00 0.00 0.00 0.00 0.00 0.00 0.00 0.00 0.00 0.00 0.00 0.00 0.00 0.00 0.00 0.00 0.00 0.00 0.00 0.00 0.00 0.00 0.00 0.00 0.00 0.00 0.00 0.00 0.00 0.00 0.00 0.00 0.00 0.00 0.00 0.00 0.00
0.01 0.01 0.01 0.01 0.00 0.00 0.00 0.00 0.00 0.00 0.00 0.00 0.00 0.00 0.00 0.00 0.00 0.00 0.00 0.00 0.00 0.00 0.00 0.00 0.00 0.00 0.00 0.00 0.00 0.00 0.00 0.00 0.00 0.00 0.00 0.00 0.00 0.00 0.00 0.00 0.00 0.00 0.00 0.00
0.01 0.01 0.02 0.02 0.01 0.01 0.00 0.00 0.00 0.00 0.00 0.00 0.00 0.00 0.00 0.00 0.00 0.00 0.00 0.00 0.00 0.00 0.00 0.00 0.00 0.00 0.00 0.00 0.00 0.00 0.00 0.00 0.00 0.00 0.00 0.00 0.00 0.00 0.00 0.00 0.00 0.00 0.00 0.00
0.00 0.01 0.03 0.03 0.02 0.01 0.00 0.00 0.00 0.00 0.00 0.00 0.00 0.00 0.00 0.00 0.00 0.00 0.00 0.00 0.00 0.00 0.00 0.00 0.00 0.00 0.00 0.00 0.00 0.00 0.00 0.00 0.00 0.00 0.01 0.01 0.00 0.00 0.00 0.00 0.00 0.00 0.00 0.00
0.00 0.01 0.03 0.03 0.03 0.01 0.00 0.00 0.00 0.00 0.01 0.01 0.00 0.00 0.00 0.00 0.00 0.00 0.00 0.00 0.00 0.00 0.00 0.00 0.00 0.00 0.00 0.00 0.00 0.00 0.00 0.00 0.00 0.00 0.00 0.00 0.00 0.00 0.00 0.00 0.00 0.00 0.01 0.01
0.01 0.02 0.03 0.02 0.03 0.01 0.00 0.00 0.00 0.01 0.01 0.01 0.01 0.00 0.00 0.00 0.00 0.00 0.00 0.00 0.00 0.00 0.00 0.00 0.00 0.00 0.00 0.00 0.00 0.00 0.00 0.00 0.00 0.00 0.00 0.00 0.00 0.00 0.00 0.00 0.00 0.01 0.01 0.01
0.00 0.01 0.01 0.02 0.03 0.01 0.00 0.00 0.01 0.01 0.01 0.01 0.01 0.00 0.00 0.00 0.00 0.00 0.00 0.00 0.00 0.00 0.00 0.00 0.00 0.00 0.00 0.00 0.00 0.00 0.00 0.00 0.00 0.00 0.00 0.00 0.00 0.00 0.00 0.01 0.01 0.01 0.01 0.01
0.00 0.00 0.01 0.01 0.01 0.01 0.01 0.01 0.01 0.01 0.01 0.01 0.00 0.00 0.00 0.00 0.00 0.00 0.00 0.00 0.00 0.00 0.00 0.00 0.00 0.00 0.00 0.00 0.00 0.00 0.00 0.00 0.00 0.00 0.00 0.00 0.00 0.00 0.00 0.01 0.01 0.01 0.01 0.01
0.00 0.01 0.01 0.01 0.01 0.00 0.01 0.01 0.01 0.01 0.00 0.00 0.00 0.00 0.00 0.00 0.00 0.00 0.00 0.00 0.00 0.00 0.00 0.00 0.00 0.00 0.00 0.00 0.00 0.00 0.00 0.00 0.00 0.00 0.00 0.00 0.00 0.00 0.00 0.01 0.01 0.02 0.02 0.01
0.00 0.00 0.01 0.01 0.00 0.00 0.01 0.01 0.01 0.00 0.00 0.00 0.00 0.00 0.00 0.00 0.00 0.00 0.00 0.00 0.00 0.00 0.00 0.00 0.00 0.00 0.00 0.00 0.00 0.00 0.00 0.00 0.00 0.00 0.00 0.00 0.00 0.00 0.00 0.01 0.01 0.01 0.01 0.02
0.01 0.01 0.01 0.01 0.01 0.01 0.01 0.00 0.00 0.00 0.01 0.01 0.01 0.01 0.00 0.00 0.00 0.00 0.00 0.00 0.00 0.00 0.00 0.00 0.00 0.00 0.00 0.00 0.00 0.00 0.00 0.00 0.00 0.00 0.00 0.00 0.00 0.00 0.01 0.01 0.01 0.01 0.01 0.02
MSLP
1018.96 1018.93 1018.78 1018.49 1018.06 1017.52 1016.93 1016.35 1015.82 1015.39 1015.08 1014.88 1014.78 1014.73 1014.71 1014.70 1014.67 1014.64 1014.61 1014.63 1014.70 1014.85 1015.08 1015.39 1015.76 1016.16 1016.56 1016.93 1017.26 1017.54 1017.77 1017.97 1018.14 1018.30 1018.45 1018.61 1018.78 1018.95 1019.12 1019.28 1019.43 1019.56 1019.66 1019.74
1019.21 1019.23 1019.14 1018.91 1018.54 1018.06 1017.50 1016.92 1016.36 1015.87 1015.47 1015.18 1014.97 1014.83 1014.74 1014.66 1014.59 1014.53 1014.49 1014.48 1014.53 1014.65 1014.86 1015.15 1015.50 1015.90 1016.32 1016.73 1017.12 1017.46 1017.75 1018.00 1018.19 1018.36 1018.50 1018.63 1018.76 1018.89 1019.03 1019.19 1019.35 1019.50 1019.65 1019.77
1019.35 1019.39 1019.34 1019.18 1018.89 1018.48 1017.97 1017.40 1016.83 1016.30 1015.82 1015.43 1015.12 1014.88 1014.69 1014.55 1014.44 1014.35 1014.29 1014.28 1014.32 1014.42 1014.61 1014.88 1015.22 1015.61 1016.04 1016.48 1016.90 1017.29 1017.63 1017.91 1018.14 1018.31 1018.45 1018.56 1018.65 1018.76 1018.88 1019.03 1019.20 1019.38 1019.57 1019.74
1019.37 1019.42 1019.41 1019.30 1019.08 1018.74 1018.29 1017.77 1017.21 1016.64 1016.10 1015.63 1015.22 1014.89 1014.62 1014.42 1014.28 1014.17 1014.12 1014.11 1014.15 1014.26 1014.44 1014.69 1015.01 1015.38 1015.80 1016.24 1016.67 1017.08 1017.45 1017.76 1018.01 1018.20 1018.34 1018.44 1018.52 1018.61 1018.71 1018.86 1019.03 1019.24 1019.46 1019.67
1019.31 1019.35 1019.37 1019.31 1019.15 1018.89 1018.51 1018.04 1017.49 1016.91 1016.34 1015.80 1015.31 1014.90 1014.57 1014.33 1014.17 1014.07 1014.02 1014.04 1014.11 1014.23 1014.40 1014.63 1014.92 1015.25 1015.64 1016.04 1016.46 1016.87 1017.25 1017.58 1017.85 1018.05 1018.20 1018.30 1018.38 1018.46 1018.56 1018.70 1018.88 1019.09 1019.33 1019.57
1019.23 1019.26 1019.29 1019.27 1019.17 1018.97 1018.66 1018.24 1017.73 1017.15 1016.55 1015.96 1015.42 1014.96 1014.59 1014.32 1014.14 1014.06 1014.05 1014.09 1014.18 1014.31 1014.48 1014.69 1014.93 1015.22 1015.54 1015.90 1016.29 1016.67 1017.04 1017.37 1017.65 1017.88 1018.04 1018.16 1018.24 1018.33 1018.43 1018.56 1018.74 1018.96 1019.21 1019.46
1019.17 1019.19 1019.23 1019.24 1019.19 1019.06 1018.81 1018.44 1017.96 1017.39 1016.78 1016.16 1015.58 1015.08 1014.67 1014.39 1014.22 1014.15 1014.16 1014.24 1014.35 1014.49 1014.65 1014.82 1015.01 1015.24 1015.49 1015.79 1016.11 1016.46 1016.80 1017.13 1017.42 1017.66 1017.85 1017.99 1018.09 1018.19 1018.30 1018.44 1018.61 1018.83 1019.07 1019.32
1019.16 1019.18 1019.22 1019.26 1019.26 1019.17 1018.97 1018.65 1018.20 1017.65 1017.03 1016.39 1015.78 1015.25 1014.82 1014.53 1014.35 1014.30 1014.33 1014.42 1014.55 1014.69 1014.82 1014.95 1015.09 1015.25 1015.43 1015.65 1015.91 1016.21 1016.52 1016.84 1017.13 1017.39 1017.60 1017.77 1017.90 1018.02 1018.14 1018.28 1018.45 1018.66 1018.89 1019.14
1019.18 1019.21 1019.27 1019.33 1019.36 1019.31 1019.15 1018.86 1018.44 1017.89 1017.28 1016.63 1016.00 1015.44 1015.00 1014.68 1014.51 1014.45 1014.49 1014.58 1014.71 1014.83 1014.94 1015.03 1015.11 1015.20 1015.31 1015.46 1015.66 1015.91 1016.19 1016.49 1016.78 1017.05 1017.28 1017.47 1017.63 1017.77 1017.90 1018.05 1018.22 1018.42 1018.64 1018.87
1019.21 1019.25 1019.33 1019.42 1019.47 1019.45 1019.32 1019.04 1018.63 1018.09 1017.47 1016.81 1016.17 1015.60 1015.13 1014.81 1014.62 1014.55 1014.58 1014.66 1014.77 1014.88 1014.96 1015.01 1015.04 1015.08 1015.13 1015.22 1015.37 1015.57 1015.81 1016.09 1016.37 1016.64 1016.88 1017.09 1017.26 1017.41 1017.56 1017.71 1017.87 1018.06 1018.27 1018.49
1019.21 1019.28 1019.38 1019.48 1019.55 1019.53 1019.40 1019.13 1018.72 1018.18 1017.55 1016.89 1016.24 1015.65 1015.18 1014.84 1014.64 1014.56 1014.57 1014.64 1014.73 1014.81 1014.86 1014.89 1014.89 1014.89 1014.90 1014.96 1015.06 1015.22 1015.43 1015.67 1015.93 1016.19 1016.42 1016.62 1016.79 1016.95 1017.09 1017.23 1017.40 1017.58 1017.78 1017.99
1019.16 1019.26 1019.38 1019.49 1019.55 1019.52 1019.38 1019.09 1018.66 1018.10 1017.47 1016.80 1016.15 1015.57 1015.10 1014.76 1014.55 1014.46 1014.46 1014.51 1014.58 1014.65 1014.69 1014.70 1014.69 1014.67 1014.67 1014.70 1014.78 1014.91 1015.08 1015.29 1015.51 1015.72 1015.92 1016.09 1016.24 1016.38 1016.50 1016.64 1016.79 1016.97 1017.17 1017.38
1019.09 1019.21 1019.33 1019.43 1019.47 1019.40 1019.21 1018.88 1018.41 1017.84 1017.20 1016.53 1015.89 1015.33 1014.88 1014.56 1014.36 1014.27 1014.27 1014.32 1014.39 1014.45 1014.49 1014.50 1014.49 1014.48 1014.47 1014.50 1014.56 1014.66 1014.80 1014.96 1015.12 1015.28 1015.42 1015.54 1015.65 1015.74 1015.84 1015.95 1016.09 1016.25 1016.45 1016.66
1019.02 1019.16 1019.27 1019.34 1019.32 1019.19 1018.93 1018.53 1018.01 1017.40 1016.75 1016.09 1015.48 1014.96 1014.55 1014.26 1014.10 1014.04 1014.05 1014.11 1014.18 1014.25 1014.30 1014.32 1014.33 1014.33 1014.34 1014.37 1014.43 1014.50 1014.60 1014.70 1014.80 1014.88 1014.94 1014.99 1015.03 1015.07 1015.12 1015.20 1015.31 1015.47 1015.66 1015.88
1019.00 1019.13 1019.22 1019.23 1019.13 1018.90 1018.54 1018.06 1017.47 1016.83 1016.16 1015.52 1014.95 1014.49 1014.14 1013.92 1013.81 1013.80 1013.85 1013.93 1014.02 1014.10 1014.16 1014.20 1014.23 1014.25 1014.28 1014.31 1014.35 1014.40 1014.45 1014.50 1014.52 1014.52 1014.50 1014.46 1014.42 1014.39 1014.39 1014.43 1014.52 1014.66 1014.84 1015.07
1019.03 1019.16 1019.20 1019.13 1018.92 1018.58 1018.10 1017.52 1016.86 1016.17 1015.50 1014.89 1014.38 1013.98 1013.72 1013.59 1013.55 1013.60 1013.69 1013.80 1013.91 1014.00 1014.08 1014.13 1014.17 1014.20 1014.24 1014.27 1014.30 1014.33 1014.33 1014.31 1014.26 1014.18 1014.07 1013.95 1013.84 1013.74 1013.68 1013.68 1013.73 1013.85 1014.03 1014.25
1019.09 1019.19 1019.16 1019.00 1018.68 1018.22 1017.63 1016.94 1016.21 1015.49 1014.82 1014.25 1013.81 1013.51 1013.34 1013.30 1013.34 1013.45 1013.59 1013.73 1013.85 1013.96 1014.03 1014.08 1014.12 1014.15 1014.18 1014.21 1014.22 1014.21 1014.18 1014.10 1013.98 1013.83 1013.65 1013.45 1013.27 1013.11 1013.01 1012.96 1012.99 1013.08 1013.24 1013.46
1019.09 1019.15 1019.06 1018.80 1018.37 1017.80 1017.10 1016.34 1015.56 1014.82 1014.18 1013.67 1013.31 1013.10 1013.03 1013.08 1013.21 1013.38 1013.56 1013.72 1013.84 1013.93 1013.99 1014.02 1014.04 1014.06 1014.07 1014.07 1014.06 1014.02 1013.95 1013.82 1013.66 1013.45 1013.21 1012.96 1012.72 1012.52 1012.37 1012.30 1012.29 1012.36 1012.50 1012.71
1018.94 1018.94 1018.78 1018.44 1017.93 1017.27 1016.51 1015.70 1014.91 1014.20 1013.60 1013.17 1012.89 1012.79 1012.82 1012.96 1013.15 1013.37 1013.57 1013.73 1013.85 1013.91 1013.93 1013.93 1013.92 1013.90 1013.88 1013.85 1013.81 1013.74 1013.63 1013.47 1013.27 1013.02 1012.74 1012.46 1012.19 1011.96 1011.79 1011.69 1011.66 1011.71 1011.83 1012.01
1018.52 1018.47 1018.25 1017.85 1017.29 1016.60 1015.82 1015.02 1014.27 1013.61 1013.10 1012.75 1012.59 1012.58 1012.70 1012.91 1013.16 1013.41 1013.61 1013.76 1013.85 1013.87 1013.85 1013.80 1013.74 1013.68 1013.62 1013.56 1013.48 1013.38 1013.25 1013.06 1012.83 1012.56 1012.26 1011.96 1011.67 1011.42 1011.24 1011.12 1011.08 1011.12 1011.22 1011.38
1017.79 1017.69 1017.42 1017.00 1016.44 1015.76 1015.03 1014.30 1013.63 1013.07 1012.67 1012.44 1012.38 1012.47 1012.67 1012.93 1013.21 1013.47 1013.66 1013.79 1013.83 1013.81 1013.74 1013.64 1013.53 1013.43 1013.33 1013.23 1013.13 1013.00 1012.84 1012.63 1012.38 1012.09 1011.77 1011.46 1011.17 1010.91 1010.72 1010.60 1010.55 1010.58 1010.67 1010.82
1016.77 1016.62 1016.34 1015.93 1015.41 1014.80 1014.17 1013.56 1013.02 1012.60 1012.34 1012.23 1012.28 1012.45 1012.71 1013.01 1013.30 1013.55 1013.72 1013.81 1013.81 1013.74 1013.63 1013.49 1013.34 1013.20 1013.06 1012.93 1012.80 1012.64 1012.45 1012.21 1011.94 1011.63 1011.31 1010.98 1010.68 1010.42 1010.23 1010.11 1010.06 1010.08 1010.16 1010.30
1015.55 1015.36 1015.09 1014.73 1014.29 1013.80 1013.31 1012.86 1012.49 1012.23 1012.11 1012.13 1012.28 1012.52 1012.82 1013.13 1013.41 1013.63 1013.77 1013.82 1013.78 1013.68 1013.53 1013.36 1013.18 1013.01 1012.85 1012.69 1012.53 1012.34 1012.11 1011.85 1011.54 1011.21 1010.86 1010.52 1010.21 1009.95 1009.75 1009.62 1009.58 1009.60 1009.69 1009.83
1014.29 1014.09 1013.84 1013.55 1013.22 1012.89 1012.57 1012.29 1012.10 1012.01 1012.03 1012.16 1012.39 1012.67 1012.99 1013.29 1013.54 1013.73 1013.82 1013.83 1013.76 1013.63 1013.46 1013.27 1013.08 1012.89 1012.71 1012.53 1012.33 1012.11 1011.85 1011.54 1011.20 1010.82 1010.44 1010.08 1009.74 1009.47 1009.27 1009.14 1009.10 1009.13 1009.23 1009.38
1013.16 1012.96 1012.76 1012.56 1012.36 1012.18 1012.04 1011.95 1011.92 1011.98 1012.13 1012.34 1012.61 1012.91 1013.21 1013.48 1013.69 1013.82 1013.87 1013.84 1013.74 1013.59 1013.41 1013.21 1013.02 1012.82 1012.63 1012.43 1012.20 1011.93 1011.63 1011.27 1010.88 1010.46 1010.04 1009.64 1009.28 1008.99 1008.78 1008.66 1008.62 1008.67 1008.78 1008.95
1012.32 1012.14 1012.00 1011.90 1011.83 1011.80 1011.81 1011.88 1012.00 1012.17 1012.40 1012.66 1012.95 1013.24 1013.50 1013.71 1013.85 1013.92 1013.91 1013.84 1013.71 1013.54 1013.36 1013.16 1012.97 1012.77 1012.56 1012.34 1012.08 1011.77 1011.41 1011.01 1010.56 1010.09 1009.63 1009.19 1008.81 1008.50 1008.29 1008.17 1008.15 1008.21 1008.34 1008.53
Thickness
5587 5588 5586 5584 5582 5582 5580 5582 5586 5588 5585 5586 5593 5597 5602 5603 5604 5606 5607 5609 5610 5612 5613 5612 5611 5611 5610 5609 5610 5610 5611 5610 5609 5609 5610 5610 5611 5610 5611 5611 5612 5613 5614 5616
5587 5583 5580 5577 5577 5577 5577 5579 5584 5584 5581 5583 5588 5594 5601 5601 5601 5603 5605 5607 5608 5609 5609 5607 5606 5606 5606 5606 5606 5606 5605 5604 5604 5604 5603 5604 5604 5603 5604 5603 5604 5605 5606 5607
5583 5578 5574 5574 5575 5577 5577 5578 5579 5578 5577 5578 5583 5597 5599 5598 5598 5598 5601 5603 5605 5605 5606 5605 5603 5602 5602 5601 5601 5600 5600 5599 5598 5597 5596 5595 5595 5596 5597 5597 5597 5597 5597 5598
5575 5572 5570 5572 5573 5574 5578 5573 5571 5570 5576 5584 5582 5593 5601 5597 5596 5597 5599 5600 5601 5601 5601 5601 5600 5599 5598 5597 5595 5594 5593 5592 5591 5590 5590 5591 5591 5592 5592 5591 5590 5589 5589 5590
5571 5567 5568 5571 5570 5568 5571 5567 5567 5568 5572 5577 5581 5586 5602 5592 5593 5595 5597 5597 5597 5597 5597 5596 5595 5594 5592 5590 5589 5588 5587 5585 5583 5583 5583 5584 5584 5585 5584 5583 5582 5582 5582 5582
5566 5562 5562 5563 5562 5562 5563 5565 5566 5567 5572 5576 5578 5582 5597 5595 5594 5593 5593 5593 5592 5592 5591 5590 5588 5587 5585 5584 5582 5581 5580 5579 5577 5576 5576 5576 5577 5576 5576 5576 5576 5575 5575 5574
5565 5561 5558 5558 5562 5561 5562 5567 5572 5574 5575 5582 5569 5573 5592 5593 5589 5588 5588 5588 5587 5586 5585 5584 5583 5581 5580 5578 5576 5575 5574 5573 5571 5570 5569 5569 5569 5569 5569 5569 5568 5568 5568 5567
5567 5566 5557 5555 5558 5558 5558 5562 5565 5570 5576 5580 5566 5575 5593 5586 5583 5581 5581 5580 5580 5579 5579 5578 5577 5576 5575 5573 5571 5569 5568 5566 5565 5563 5562 5561 5561 5561 5561 5560 5559 5559 5559 5558
5564 5562 5550 5547 5547 5552 5554 5556 5554 5555 5551 5562 5579 5581 5586 5582 5579 5577 5576 5575 5575 5574 5572 5572 5571 5570 5569 5567 5565 5563 5561 5559 5557 5556 5555 5554 5553 5552 5552 5551 5550 5550 5549 5548
5552 5551 5548 5542 5542 5541 5545 5548 5548 5549 5554 5566 5578 5580 5588 5582 5579 5575 5573 5571 5570 5568 5567 5566 5564 5562 5561 5559 5557 5555 5553 5552 5550 5548 5548 5546 5545 5544 5543 5542 5541 5541 5540 5538
5541 5542 5543 5540 5542 5546 5538 5538 5543 5547 5548 5556 5566 5582 5583 5578 5575 5571 5569 5567 5565 5562 5561 5560 5558 5556 5553 5551 5549 5547 5546 5544 5542 5540 5539 5538 5537 5535 5534 5533 5532 5531 5530 5528
5531 5535 5539 5541 5533 5529 5535 5539 5539 5541 5541 5541 5552 5570 5573 5568 5565 5562 5561 5558 5557 5555 5554 5552 5550 5548 5546 5544 5542 5540 5538 5536 5534 5532 5530 5528 5527 5526 5525 5524 5523 5521 5520 5518
5522 5525 5532 5539 5529 5519 5523 5526 5526 5529 5530 5534 5542 5564 5561 5557 5555 5553 5552 5551 5549 5547 5545 5543 5542 5540 5538 5536 5533 5531 5529 5527 5524 5522 5521 5519 5518 5517 5516 5515 5513 5511 5509 5508
5516 5519 5525 5538 5542 5530 5522 5519 5516 5516 5521 5533 5543 5557 5557 5552 5548 5546 5543 5541 5540 5538 5536 5535 5534 5532 5530 5527 5524 5522 5520 5517 5515 5513 5512 5511 5509 5508 5506 5504 5503 5501 5499 5498
5506 5511 5515 5519 5518 5515 5517 5518 5512 5510 5523 5526 5543 5544 5551 5547 5541 5539 5535 5532 5530 5528 5526 5525 5524 5523 5520 5518 5515 5513 5510 5508 5505 5503 5502 5501 5499 5497 5495 5493 5491 5490 5488 5487
5495 5497 5498 5503 5506 5503 5506 5516 5515 5513 5517 5521 5527 5535 5542 5534 5530 5528 5526 5523 5520 5519 5518 5516 5514 5512 5510 5508 5505 5503 5501 5498 5495 5493 5492 5490 5488 5487 5485 5483 5481 5479 5478 5476
5485 5483 5484 5501 5497 5493 5508 5526 5520 5517 5520 5518 5521 5530 5527 5521 5517 5517 5516 5513 5511 5510 5508 5506 5504 5502 5500 5498 5494 5492 5490 5487 5485 5483 5482 5480 5478 5476 5474 5472 5471 5469 5468 5466
5474 5473 5473 5481 5480 5484 5529 5519 5517 5514 5515 5511 5511 5513 5511 5509 5507 5505 5504 5503 5502 5501 5498 5496 5494 5491 5489 5486 5483 5481 5478 5476 5474 5473 5471 5469 5467 5465 5463 5461 5460 5459 5457 5455
5466 5464 5465 5467 5477 5497 5513 5506 5500 5498 5502 5503 5499 5501 5498 5493 5491 5497 5494 5491 5490 5489 5487 5485 5482 5479 5476 5474 5472 5469 5467 5465 5464 5463 5461 5459 5456 5454 5452 5451 5450 5448 5447 5445
5448 5451 5454 5456 5460 5478 5504 5491 5484 5484 5490 5492 5487 5485 5483 5477 5484 5493 5485 5479 5477 5475 5473 5471 5469 5466 5464 5462 5459 5458 5457 5455 5454 5452 5450 5447 5445 5443 5442 5441 5440 5438 5436 5435
5439 5436 5440 5446 5451 5475 5485 5472 5469 5473 5484 5473 5471 5470 5468 5468 5474 5474 5470 5467 5464 5462 5460 5458 5456 5454 5452 5450 5447 5446 5446 5445 5443 5440 5438 5436 5434 5433 5432 5431 5429 5427 5426 5424
5447 5442 5439 5441 5441 5462 5466 5456 5460 5467 5461 5459 5458 5458 5456 5457 5455 5455 5454 5452 5451 5449 5447 5445 5443 5442 5440 5437 5435 5435 5435 5433 5430 5428 5427 5426 5425 5423 5421 5420 5419 5417 5416 5415
5441 5449 5450 5447 5457 5458 5451 5451 5449 5446 5446 5447 5446 5446 5444 5442 5442 5442 5441 5440 5438 5437 5435 5432 5431 5430 5429 5426 5424 5424 5424 5421 5419 5418 5417 5416 5415 5413 5412 5411 5410 5408 5407 5406
5430 5425 5426 5430 5444 5444 5439 5437 5435 5433 5433 5434 5432 5431 5430 5430 5430 5429 5428 5427 5426 5424 5422 5420 5419 5419 5419 5416 5414 5413 5411 5409 5408 5408 5408 5407 5406 5405 5404 5402 5401 5400 5400 5399
5428 5414 5415 5421 5431 5429 5431 5427 5425 5424 5421 5420 5419 5418 5417 5416 5417 5416 5416 5415 5414 5412 5411 5409 5408 5408 5408 5406 5404 5402 5400 5398 5398 5398 5398 5398 5396 5396 5396 5395 5394 5393 5393 5392
5412 5408 5408 5418 5421 5417 5422 5419 5414 5411 5410 5409 5407 5406 5405 5403 5404 5404 5404 5403 5401 5400 5399 5397 5397 5397 5396 5396 5395 5393 5390 5388 5388 5389 5389 5389 5388 5388 5387 5386 5386 5385 5383 5382